Location: Mizzole
(45.4833°N, 11.0500°E)
Time: 02:30:51
(UTC+00:00)

Falcon 9 debris - Pass Details

Date: 21 October 2019
Orbit: 430 x 438 km, 53.0° (Epoch: 13 November)

Event Time Altitude Azimuth Distance (km) Brightness Sun altitude
Rises 17:00:19 0° 302° (WNW) 2,406 ? -7.6°
Reaches altitude 10° 17:02:30 10° 310° (NW) 1,538 ? -8.0°
Maximum altitude 17:05:49 44° 24° (NNE) 612 ? -8.6°
Enters shadow 17:08:47 12° 96° (E) 1,402 ? -9.1°
